Vorticity
6 6 9 12 13 13 13 13 12 10 10 10 10 9 9 9 8 8 8 9 9 8
9 11 12 12 12 10 10 10 10 11 11 11 11 10 9 8 8 8 8 7 7 7
7 10 11 10 9 9 9 8 8 8 8 8 9 9 8 8 8 7 7 7 7 7
7 9 11 11 9 7 9 10 10 9 8 7 7 7 7 7 7 7 7 6 6 6
4 10 12 13 9 6 8 10 9 9 8 8 7 6 6 6 6 6 6 6 7 7
5 6 9 10 11 10 8 9 11 10 9 9 9 9 9 8 8 8 7 7 8 8
2 2 2 6 7 6 7 9 10 9 9 9 10 9 9 9 8 9 9 9 8 8
-1 -0 -0 2 9 12 10 8 9 9 8 9 10 10 10 10 10 10 9 9 8 8
2 1 1 3 5 11 11 9 8 9 10 11 12 11 10 9 9 9 9 9 9 9
3 2 -1 0 4 19 13 9 8 9 12 14 14 12 11 11 11 10 11 11 11 11
4 1 -1 -5 19 19 13 11 11 13 13 12 12 11 10 10 11 12 14 14 13 14
1 -1 -6 11 20 16 11 11 13 9 12 10 10 12 12 13 13 12 12 11 10 10
2 -6 -4 17 3 15 13 12 8 12 12 12 12 12 11 9 7 6 7 5 5 5
4 4 8 18 22 16 16 12 13 12 11 10 9 6 6 5 5 4 4 3 4 5
Height
3084 3081 3078 3075 3073 3070 3068 3066 3063 3061 3059 3057 3056 3054 3052 3051 3050 3048 3048 3046 3045 3044
3079 3076 3073 3070 3068 3066 3063 3061 3059 3056 3055 3053 3052 3050 3048 3047 3046 3045 3044 3043 3041 3040
3075 3072 3069 3066 3063 3060 3058 3056 3054 3052 3050 3049 3047 3045 3043 3042 3041 3040 3039 3038 3036 3035
3070 3067 3064 3061 3058 3055 3053 3051 3049 3046 3044 3043 3041 3040 3038 3037 3035 3034 3033 3032 3031 3030
3066 3063 3060 3057 3054 3051 3048 3045 3043 3041 3040 3038 3036 3033 3031 3030 3029 3028 3027 3026 3025 3024
3059 3057 3054 3051 3048 3045 3043 3040 3038 3036 3033 3031 3029 3028 3026 3025 3023 3022 3020 3019 3018 3017
3052 3051 3049 3046 3043 3040 3037 3034 3031 3028 3026 3024 3022 3020 3018 3017 3015 3014 3013 3012 3010 3009
3045 3043 3041 3038 3035 3032 3029 3027 3024 3021 3018 3016 3013 3011 3010 3008 3007 3006 3004 3002 3001 3000
3036 3034 3032 3030 3027 3024 3021 3017 3015 3012 3009 3007 3004 3002 3000 2999 2997 2995 2994 2993 2991 2990
3027 3024 3022 3020 3017 3014 3010 3007 3004 3001 2998 2996 2994 2991 2989 2987 2986 2985 2984 2983 2982 2980
3017 3014 3011 3009 3006 3002 2999 2995 2993 2990 2987 2985 2984 2981 2978 2976 2975 2974 2974 2972 2971 2971
3005 3002 3000 2998 2994 2991 2987 2984 2982 2979 2976 2974 2973 2970 2968 2966 2965 2965 2966 2964 2963 2962
2992 2989 2987 2984 2982 2979 2975 2973 2970 2968 2966 2964 2963 2962 2959 2956 2955 2954 2954 2953 2953 2952
2977 2974 2972 2970 2967 2965 2962 2960 2959 2957 2956 2954 2953 2952 2950 2949 2946 2945 2944 2943 2943 2943